Flag for Mexico Weather past 2 weeks in Puerto Vallarta, Jalisco, Mexico

Now
82 °F

Scattered clouds.


Feels Like: 86 °F
Forecast: 71 / 85 °F
Wind: 12 mph from South

Location: Puerto Vallarta / Lic


UV Index: 10 (Very high)

Visibility: 15 mi


Pressure: 29.93 "Hg

Humidity: 66%

Dew point: 70 °F

Location of Puerto VallartaLocation

Historic Weather in Puerto Vallarta

°F

Puerto Vallarta temperature yesterday

Maximum temperature yesterday: 86 °F (at 11:48 AM)
Minimum temperature yesterday: 70 °F (at 6:46 AM)
Average temperature yesterday: 78 °F

Past Weeks' High & Low Weather Summary

 TemperatureHumidityPressure
High86 °F (Apr 9, 12:47 PM)94% (Apr 10, 6:51 AM)29.98 "Hg (Apr 10, 6:51 AM)
Low61 °F (Apr 13, 7:49 AM)40% (Apr 9, 12:47 PM)28.66 "Hg (Apr 16, 6:49 PM)
Average75 °F75%29.87 "Hg
* Reported Apr 5 10:48 AM — Apr 20 11:49 AM, Puerto Vallarta, Weather by CustomWeather, © 2014

Note: Actual official high and low records may vary slightly from our data, if they occured in-between our weather recording intervals... More about our weather records

Advertising

Historic Weather Conditions — Data for Previous 24 hours

 ConditionsComfort  
Time TempWeatherWind HumidityBarometerVisibility
11:49 AM
Apr 20
82 °FScattered clouds.7 mph62%29.96 "Hg15 mi
10:51 AM81 °FScattered clouds.No wind70%29.96 "Hg15 mi
9:47 AM77 °FScattered clouds.No wind74%29.93 "Hg15 mi
8:51 AM73 °FPartly sunny.No wind83%29.94 "Hg15 mi
7:49 AM72 °FPartly cloudy.No wind83%29.93 "Hg15 mi
6:52 AM73 °FMostly cloudy.No wind83%29.91 "Hg12 mi
5:45 AM75 °FMostly cloudy.No wind78%29.92 "Hg12 mi
4:45 AM75 °FMostly cloudy.No wind83%29.93 "Hg12 mi
3:51 AM75 °FMostly cloudy.No wind83%29.92 "Hg12 mi
2:46 AM73 °FPassing clouds.No wind83%29.93 "Hg12 mi
1:47 AM73 °FPassing clouds.3 mph89%29.93 "Hg12 mi
12:48 AM73 °FClear.No wind89%29.93 "Hg12 mi
11:46 PM
Apr 19
75 °FClear.No wind83%29.92 "Hg12 mi
9:45 PM77 °FOvercast.10 mph83%29.89 "Hg12 mi
8:46 PM79 °FMore clouds than sun.8 mph74%29.90 "Hg12 mi
4:45 PM82 °FMore clouds than sun.14 mph66%29.88 "Hg15 mi
3:49 PM82 °FCloudy.15 mph66%29.87 "Hg15 mi
2:49 PM84 °FPartly sunny.14 mph62%29.91 "Hg15 mi
1:47 PM82 °FPartly sunny.14 mph66%29.93 "Hg15 mi
Weather by CustomWeather, © 2014

See weather overview